Other Public Products
Issued by NWS Charleston, SC

Home | Current Version | Previous Version | Text Only | Print | Product List | Glossary On
Versions: 1 2 3 4 5 6 7 8 9 10 11 12 13 14 15 16 17 18 19 20 21 22 23 24 25 26 27 28 29 30 31 32 33 34 35 36 37 38 39 40 41 42 43 44 45 46 47 48 49 50
000
FPUS82 KCHS 240112
OPUCHS

TEST...KCHS/KSAV Gateway Observations...TEST
National Weather Service Charleston SC
900 PM EDT FRI JUN 23 2017

NOTE: "fair" indicates few or no clouds below 12,000 feet with no
significant weather and/or obstructions to visibility.

SCZ050-WAZ558-NCZ071-TXZ119-213-PAZ071-DCZ001-FLZ074-172-MI076-
NYZ176-178-MAZ016-IL014-TNZ027-NJZ106-GAZ044-MD014-240200-

...Gateway Observations for Charleston International...

CITY           SKY/WX    TMP DP  RH WIND       PRES   REMARKS
Chas Airport   MOCLDY    79  72  79 S13       29.97R
Seattle        SUNNY     80  50  34 N13       30.15F
Charlotte      PTCLDY    82  69  64 S8        29.88F
Dallas DFW     PTCLDY    95  72  47 E12       29.80R HX 103
Dallas Love    PTCLDY    95  69  42 E9        29.80R HX 100
Philladelphia  CLOUDY    84  72  67 SW15G26   29.67S
Wash National  MOCLDY    85  74  69 S12       29.71R HX  92
Baltimore      MOCLDY    84  74  71 SW10      29.69R HX  91
Miami          PTCLDY    84  73  69 E10       30.03R HX  90
Detroit        CLOUDY    74  60  61 NW7       29.66R
Newark         MOCLDY    77  75  93 S5        29.63F
Laguardia      LGT RAIN  77  74  90 S9        29.63S
J F K          MOCLDY    73  71  93 S18       29.65F
Boston Logan   CLOUDY    75  69  81 S15       29.60S
Ft. Lauderdale MOCLDY    84  75  74 SE12      30.02R HX  92
Chicago O`Hare PTCLDY    76  51  41 NW17G29   29.74R
Chicago Midway CLOUDY    79  54  41 NW20      29.73R
Houston Bush   PTCLDY    87  75  67 S12       29.83R HX  96
Houston Hobby  PTCLDY    86  75  69 S12       29.84R HX  95
Nashville      MOCLDY    79  74  84 SW7       29.82R
Atlanta        PTCLDY    82  70  66 S6        29.94R THUNDER

$$

GAZ044-118-TXZ119-213-NCZ071-DCZ001-MDZ014-506-PAZ021-071-NJZ106-
NYZ176-178-MAZ106-OHZ011-021-055-MIZ076-KYZ091-ILZ014-INZ047-
MNZ060-ONZ431-240200-

...Gateway Observations for Savannah International...

CITY           SKY/WX    TMP DP  RH WIND       PRES   REMARKS
Savannah Arpt  CLOUDY    80  73  79 N3        29.98R
Atlanta        PTCLDY    82  70  66 S6        29.94R THUNDER
Charlotte      PTCLDY    82  69  64 S8        29.88F
Dallas DFW     PTCLDY    95  72  47 E12       29.80R HX 103
Houston Bush   PTCLDY    87  75  67 S12       29.83R HX  96
Wash National  MOCLDY    85  74  69 S12       29.71R HX  92
Wash Dulles    MOCLDY    82  71  69 S15G21    29.70S
Baltimore      MOCLDY    84  74  71 SW10      29.69R HX  91
Philadelphia   CLOUDY    84  72  67 SW15G26   29.67S
Newark         MOCLDY    77  75  93 S5        29.63F
Laguardia      LGT RAIN  77  74  90 S9        29.63S
J F K          MOCLDY    73  71  93 S18       29.65F
Boston         CLOUDY    75  69  81 S15       29.60S
Pittsburg      LGT RAIN  69  68  96 SW3       29.71R
Akron          CLOUDY    71  66  84 W6        29.70R
Cleveland      CLOUDY    73  67  81 W9        29.69R FOG
Cincinnati     CLOUDY    69  68  96 CALM      29.73R
Columbus       LGT RAIN  66  66 100 S5        29.68F
Detroit        CLOUDY    74  60  61 NW7       29.66R
Chicago O`Hare PTCLDY    76  51  41 NW17G29   29.74R
Minneapolis    MOCLDY    67  49  52 NW18G28   29.86R
Indianapolis   CLOUDY    69  61  75 NW6       29.77R
Toronto Canada MOCLDY    73  63  68 NW14      29.55S

$$




USA.gov is the U.S. government's official web portal to all federal, state and local government web resources and services.